Year,Month,Day,Hour,Minute,Value (Times are PST for temperature in C)
2009,08,03,00,00,23.90
2009,08,03,00,01,23.90
2009,08,03,00,02,24.00
2009,08,03,00,03,24.10
2009,08,03,00,04,24.10
2009,08,03,00,05,24.10
2009,08,03,00,06,24.10
2009,08,03,00,07,24.10
2009,08,03,00,08,24.20
2009,08,03,00,09,24.20
2009,08,03,00,10,24.20
2009,08,03,00,11,24.20
2009,08,03,00,12,24.20
2009,08,03,00,13,24.20
2009,08,03,00,14,24.10
2009,08,03,00,15,24.10
2009,08,03,00,16,24.10
2009,08,03,00,17,24.00
2009,08,03,00,18,24.00
2009,08,03,00,19,24.00
2009,08,03,00,20,24.10
2009,08,03,00,21,24.20
2009,08,03,00,22,24.20
2009,08,03,00,23,24.20
2009,08,03,00,24,24.30
2009,08,03,00,25,24.30
2009,08,03,00,26,24.40
2009,08,03,00,27,24.40
2009,08,03,00,28,24.50
2009,08,03,00,29,24.60
2009,08,03,00,30,24.70
2009,08,03,00,31,24.80
2009,08,03,00,32,24.80
2009,08,03,00,33,24.90
2009,08,03,00,34,25.00
2009,08,03,00,35,25.10
2009,08,03,00,36,25.10
2009,08,03,00,37,25.10
2009,08,03,00,38,25.10
2009,08,03,00,39,25.20
2009,08,03,00,40,25.10
2009,08,03,00,41,25.10
2009,08,03,00,42,25.10
2009,08,03,00,43,25.00
2009,08,03,00,44,25.00
2009,08,03,00,45,25.10
2009,08,03,00,46,25.10
2009,08,03,00,47,25.00
2009,08,03,00,48,25.00
2009,08,03,00,49,25.00
2009,08,03,00,50,24.90
2009,08,03,00,51,24.80
2009,08,03,00,52,24.80
2009,08,03,00,53,24.70
2009,08,03,00,54,24.60
2009,08,03,00,55,24.60
2009,08,03,00,56,24.60
2009,08,03,00,57,24.60
2009,08,03,00,58,24.60
2009,08,03,00,59,24.50
2009,08,03,01,00,24.50
2009,08,03,01,01,24.50
2009,08,03,01,02,24.40
2009,08,03,01,03,24.30
2009,08,03,01,04,24.10
2009,08,03,01,05,23.90
2009,08,03,01,06,23.70
2009,08,03,01,07,23.40
2009,08,03,01,08,23.10
2009,08,03,01,09,22.90
2009,08,03,01,10,22.70
2009,08,03,01,11,22.60
2009,08,03,01,12,22.40
2009,08,03,01,13,22.30
2009,08,03,01,14,22.20
2009,08,03,01,15,22.10
2009,08,03,01,16,22.00
2009,08,03,01,17,21.90
2009,08,03,01,18,21.80
2009,08,03,01,19,21.80
2009,08,03,01,20,21.80
2009,08,03,01,21,21.80
2009,08,03,01,22,21.90
2009,08,03,01,23,22.30
2009,08,03,01,24,22.50
2009,08,03,01,25,22.60
2009,08,03,01,26,22.60
2009,08,03,01,27,22.60
2009,08,03,01,28,22.60
2009,08,03,01,29,22.50
2009,08,03,01,30,22.40
2009,08,03,01,31,22.30
2009,08,03,01,32,22.20
2009,08,03,01,33,22.10
2009,08,03,01,34,22.00
2009,08,03,01,35,21.80
2009,08,03,01,36,21.60
2009,08,03,01,37,21.50
2009,08,03,01,38,21.40
2009,08,03,01,39,21.30
2009,08,03,01,40,21.20
2009,08,03,01,41,21.20
2009,08,03,01,42,21.10
2009,08,03,01,43,21.10
2009,08,03,01,44,21.00
2009,08,03,01,45,21.00
2009,08,03,01,46,20.90
2009,08,03,01,47,20.90
2009,08,03,01,48,20.80
2009,08,03,01,49,20.80
2009,08,03,01,50,20.70
2009,08,03,01,51,20.70
2009,08,03,01,52,20.70
2009,08,03,01,53,20.60
2009,08,03,01,54,20.60
2009,08,03,01,55,20.50
2009,08,03,01,56,20.50
2009,08,03,01,57,20.40
2009,08,03,01,58,20.40
2009,08,03,01,59,20.40
2009,08,03,02,00,20.40
2009,08,03,02,01,20.30
2009,08,03,02,02,20.20
2009,08,03,02,03,20.20
2009,08,03,02,04,20.20
2009,08,03,02,05,20.20
2009,08,03,02,06,20.10
2009,08,03,02,07,20.10
2009,08,03,02,08,20.10
2009,08,03,02,09,20.00
2009,08,03,02,10,20.00
2009,08,03,02,11,20.00
2009,08,03,02,12,20.00
2009,08,03,02,13,19.90
2009,08,03,02,14,19.90
2009,08,03,02,15,19.90
2009,08,03,02,16,19.90
2009,08,03,02,17,19.90
2009,08,03,02,18,19.90
2009,08,03,02,19,19.90
2009,08,03,02,20,19.90
2009,08,03,02,21,19.90
2009,08,03,02,22,19.90
2009,08,03,02,23,19.90
2009,08,03,02,24,19.80
2009,08,03,02,25,19.80
2009,08,03,02,26,19.80
2009,08,03,02,27,19.80
2009,08,03,02,28,19.80
2009,08,03,02,29,19.80
2009,08,03,02,30,19.80
2009,08,03,02,31,19.80
2009,08,03,02,32,19.80
2009,08,03,02,33,19.70
2009,08,03,02,34,19.70
2009,08,03,02,35,19.70
2009,08,03,02,36,19.70
2009,08,03,02,37,19.70
2009,08,03,02,38,19.70
2009,08,03,02,39,19.70
2009,08,03,02,40,19.70
2009,08,03,02,41,19.70
2009,08,03,02,42,19.70
2009,08,03,02,43,19.70
2009,08,03,02,44,19.70
2009,08,03,02,45,19.70
2009,08,03,02,46,19.70
2009,08,03,02,47,19.70
2009,08,03,02,48,19.70
2009,08,03,02,49,19.80
2009,08,03,02,50,19.80
2009,08,03,02,51,19.80
2009,08,03,02,52,19.80
2009,08,03,02,53,19.80
2009,08,03,02,54,19.80
2009,08,03,02,55,19.90
2009,08,03,02,56,19.90
2009,08,03,02,57,19.90
2009,08,03,02,58,19.90
2009,08,03,02,59,19.90
2009,08,03,03,00,20.00
2009,08,03,03,01,20.00
2009,08,03,03,02,20.00
2009,08,03,03,03,20.00
2009,08,03,03,04,20.00
2009,08,03,03,05,20.00
2009,08,03,03,06,20.10
2009,08,03,03,07,20.10
2009,08,03,03,08,20.10
2009,08,03,03,09,20.20
2009,08,03,03,10,20.20
2009,08,03,03,11,20.30
2009,08,03,03,12,20.30
2009,08,03,03,13,20.40
2009,08,03,03,14,20.40
2009,08,03,03,15,20.50
2009,08,03,03,16,20.60
2009,08,03,03,17,20.60
2009,08,03,03,18,20.60
2009,08,03,03,19,20.70
2009,08,03,03,20,20.70
2009,08,03,03,21,20.70
2009,08,03,03,22,20.70
2009,08,03,03,23,20.70
2009,08,03,03,24,20.70
2009,08,03,03,25,20.70
2009,08,03,03,26,20.70
2009,08,03,03,27,20.70
2009,08,03,03,28,20.70
2009,08,03,03,29,20.60
2009,08,03,03,30,20.60
2009,08,03,03,34,20.40
2009,08,03,03,35,20.30
2009,08,03,03,36,20.30
2009,08,03,03,37,20.30
2009,08,03,03,38,20.20
2009,08,03,03,39,20.20
2009,08,03,03,40,20.10
2009,08,03,03,41,20.10
2009,08,03,03,42,20.10
2009,08,03,03,43,20.00
2009,08,03,03,44,20.00
2009,08,03,03,45,20.00
2009,08,03,03,46,20.00
2009,08,03,03,47,19.90
2009,08,03,03,48,19.90
2009,08,03,03,49,19.90
2009,08,03,03,50,19.80
2009,08,03,03,51,19.80
2009,08,03,03,52,19.80
2009,08,03,03,53,19.70
2009,08,03,03,54,19.70
2009,08,03,03,55,19.60
2009,08,03,03,56,19.50
2009,08,03,03,57,19.40
2009,08,03,03,58,19.30
2009,08,03,03,59,19.30
2009,08,03,04,00,19.30
2009,08,03,04,01,19.20
2009,08,03,04,02,19.20
2009,08,03,04,03,19.20
2009,08,03,04,04,19.30
2009,08,03,04,05,19.30
2009,08,03,04,06,19.30
2009,08,03,04,07,19.30
2009,08,03,04,08,19.40
2009,08,03,04,09,19.40
2009,08,03,04,10,19.50
2009,08,03,04,11,19.50
2009,08,03,04,12,19.50
2009,08,03,04,13,19.50
2009,08,03,04,14,19.60
2009,08,03,04,15,19.60
2009,08,03,04,16,19.70
2009,08,03,04,17,19.70
2009,08,03,04,18,19.80
2009,08,03,04,19,19.80
2009,08,03,04,20,19.80
2009,08,03,04,21,19.80
2009,08,03,04,22,19.80
2009,08,03,04,23,19.70
2009,08,03,04,24,19.70
2009,08,03,04,25,19.70
2009,08,03,04,26,19.60
2009,08,03,04,27,19.60
2009,08,03,04,28,19.60
2009,08,03,04,29,19.60
2009,08,03,04,30,19.60
2009,08,03,04,31,19.60
2009,08,03,04,32,19.60
2009,08,03,04,33,19.60
2009,08,03,04,34,19.50
2009,08,03,04,35,19.50
2009,08,03,04,36,19.50
2009,08,03,04,37,19.50
2009,08,03,04,38,19.50
2009,08,03,04,39,19.50
2009,08,03,04,40,19.40
2009,08,03,04,41,19.40
2009,08,03,04,42,19.40
2009,08,03,04,43,19.50
2009,08,03,04,44,19.40
2009,08,03,04,45,19.40
2009,08,03,04,46,19.50
2009,08,03,04,47,19.50
2009,08,03,04,48,19.60
2009,08,03,04,49,19.60
2009,08,03,04,50,19.60
2009,08,03,04,51,19.60
2009,08,03,04,52,19.60
2009,08,03,04,53,19.60
2009,08,03,04,54,19.60
2009,08,03,04,55,19.60
2009,08,03,04,56,19.60
2009,08,03,04,57,19.70
2009,08,03,04,58,19.70
2009,08,03,04,59,19.70
2009,08,03,05,00,19.80
2009,08,03,05,01,19.80
2009,08,03,05,02,19.90
2009,08,03,05,03,19.90
2009,08,03,05,04,20.00
2009,08,03,05,05,20.00
2009,08,03,05,06,20.00
2009,08,03,05,07,20.10
2009,08,03,05,08,20.10
2009,08,03,05,09,20.10
2009,08,03,05,10,20.10
2009,08,03,05,11,20.20
2009,08,03,05,12,20.20
2009,08,03,05,13,20.20
2009,08,03,05,14,20.20
2009,08,03,05,15,20.20
2009,08,03,05,16,20.20
2009,08,03,05,17,20.20
2009,08,03,05,18,20.20
2009,08,03,05,19,20.20
2009,08,03,05,20,20.20
2009,08,03,05,21,20.20
2009,08,03,05,22,20.10
2009,08,03,05,23,20.10
2009,08,03,05,24,20.10
2009,08,03,05,25,20.10
2009,08,03,05,26,20.10
2009,08,03,05,27,20.10
2009,08,03,05,28,20.10
2009,08,03,05,29,20.20
2009,08,03,05,30,20.20
2009,08,03,05,31,20.20
2009,08,03,05,32,20.20
2009,08,03,05,33,20.20
2009,08,03,05,34,20.30
2009,08,03,05,35,20.30
2009,08,03,05,36,20.30
2009,08,03,05,37,20.30
2009,08,03,05,38,20.30
2009,08,03,05,39,20.40
2009,08,03,05,40,20.40
2009,08,03,05,41,20.40
2009,08,03,05,42,20.40
2009,08,03,05,43,20.40
2009,08,03,05,44,20.40
2009,08,03,05,45,20.40
2009,08,03,05,46,20.40
2009,08,03,05,47,20.30
2009,08,03,05,48,20.30
2009,08,03,05,49,20.30
2009,08,03,05,50,20.30
2009,08,03,05,51,20.30
2009,08,03,05,52,20.30
2009,08,03,05,53,20.30
2009,08,03,05,54,20.30
2009,08,03,05,55,20.30
2009,08,03,05,56,20.30
2009,08,03,05,57,20.30
2009,08,03,05,58,20.30
2009,08,03,05,59,20.20
2009,08,03,06,00,20.00
2009,08,03,06,01,19.80
2009,08,03,06,02,19.50
2009,08,03,06,03,19.20
2009,08,03,06,04,19.00
2009,08,03,06,05,18.80
2009,08,03,06,06,18.60
2009,08,03,06,07,18.60
2009,08,03,06,08,18.50
2009,08,03,06,09,18.50
2009,08,03,06,10,18.40
2009,08,03,06,11,18.30
2009,08,03,06,12,18.30
2009,08,03,06,13,18.30
2009,08,03,06,14,18.30
2009,08,03,06,15,18.20
2009,08,03,06,16,18.20
2009,08,03,06,17,18.20
2009,08,03,06,18,18.20
2009,08,03,06,19,18.20
2009,08,03,06,20,18.30
2009,08,03,06,21,18.30
2009,08,03,06,22,18.30
2009,08,03,06,23,18.30
2009,08,03,06,24,18.40
2009,08,03,06,25,18.40
2009,08,03,06,26,18.40
2009,08,03,06,27,18.40
2009,08,03,06,28,18.50
2009,08,03,06,29,18.50
2009,08,03,06,30,18.60
2009,08,03,06,31,18.60
2009,08,03,06,32,18.60
2009,08,03,06,33,18.70
2009,08,03,06,34,18.70
2009,08,03,06,35,18.70
2009,08,03,06,36,18.80
2009,08,03,06,37,18.80
2009,08,03,06,38,18.80
2009,08,03,06,39,18.80
2009,08,03,06,40,18.90
2009,08,03,06,41,18.90
2009,08,03,06,42,18.90
2009,08,03,06,43,19.00
2009,08,03,06,44,19.10
2009,08,03,06,45,19.20
2009,08,03,06,46,19.20
2009,08,03,06,47,19.20
2009,08,03,06,48,19.30
2009,08,03,06,49,19.30
2009,08,03,06,50,19.30
2009,08,03,06,51,19.30
2009,08,03,06,52,19.20
2009,08,03,06,53,19.20
2009,08,03,06,54,19.10
2009,08,03,06,55,19.10
2009,08,03,06,56,19.10
2009,08,03,06,57,19.00
2009,08,03,06,58,18.90
2009,08,03,06,59,18.90
2009,08,03,07,00,18.90
2009,08,03,07,01,18.90
2009,08,03,07,02,18.80
2009,08,03,07,03,18.80
2009,08,03,07,04,18.80
2009,08,03,07,05,18.80
2009,08,03,07,06,18.80
2009,08,03,07,07,18.80
2009,08,03,07,08,18.80
2009,08,03,07,09,18.80
2009,08,03,07,10,18.80
2009,08,03,07,11,18.80
2009,08,03,07,12,18.80
2009,08,03,07,13,18.80
2009,08,03,07,14,18.90
2009,08,03,07,15,18.90
2009,08,03,07,16,18.90
2009,08,03,07,17,18.90
2009,08,03,07,18,18.90
2009,08,03,07,19,18.90
2009,08,03,07,20,18.90
2009,08,03,07,21,18.90
2009,08,03,07,22,18.90
2009,08,03,07,23,18.90
2009,08,03,07,24,18.90
2009,08,03,07,25,18.90
2009,08,03,07,26,18.90
2009,08,03,07,27,18.90
2009,08,03,07,28,18.90
2009,08,03,07,29,18.90
2009,08,03,07,30,18.90
2009,08,03,07,31,18.90
2009,08,03,07,32,18.90
2009,08,03,07,33,18.90
2009,08,03,07,34,18.90
2009,08,03,07,35,18.90
2009,08,03,07,36,18.90
2009,08,03,07,37,18.90
2009,08,03,07,38,18.90
2009,08,03,07,39,18.90
2009,08,03,07,40,18.90
2009,08,03,07,41,18.90
2009,08,03,07,42,18.90
2009,08,03,07,43,18.90
2009,08,03,07,44,19.00
2009,08,03,07,45,19.00
2009,08,03,07,46,19.00
2009,08,03,07,47,19.00
2009,08,03,07,48,19.10
2009,08,03,07,49,19.10
2009,08,03,07,50,19.10
2009,08,03,07,51,19.10
2009,08,03,07,52,19.10
2009,08,03,07,53,19.10
2009,08,03,07,54,19.10
2009,08,03,07,55,19.10
2009,08,03,07,56,19.10
2009,08,03,07,57,19.10
2009,08,03,07,58,19.10
2009,08,03,07,59,19.10
2009,08,03,08,00,19.10
2009,08,03,08,01,19.10
2009,08,03,08,02,19.10
2009,08,03,08,03,19.20
2009,08,03,08,04,19.20
2009,08,03,08,05,19.20
2009,08,03,08,06,19.30
2009,08,03,08,07,19.30
2009,08,03,08,08,19.30
2009,08,03,08,09,19.40
2009,08,03,08,10,19.40
2009,08,03,08,11,19.40
2009,08,03,08,12,19.50
2009,08,03,08,13,19.50
2009,08,03,08,14,19.60
2009,08,03,08,15,19.60
2009,08,03,08,16,19.60
2009,08,03,08,17,19.60
2009,08,03,08,18,19.60
2009,08,03,08,19,19.50
2009,08,03,08,20,19.50
2009,08,03,08,21,19.50
2009,08,03,08,22,19.50
2009,08,03,08,23,19.50
2009,08,03,08,24,19.50
2009,08,03,08,25,19.60
2009,08,03,08,26,19.60
2009,08,03,08,27,19.60
2009,08,03,08,28,19.50
2009,08,03,08,29,19.50
2009,08,03,08,30,19.40
2009,08,03,08,31,19.40
2009,08,03,08,32,19.40
2009,08,03,08,33,19.50
2009,08,03,08,34,19.50
2009,08,03,08,35,19.50
2009,08,03,08,36,19.50
2009,08,03,08,37,19.50
2009,08,03,08,38,19.50
2009,08,03,08,39,19.60
2009,08,03,08,40,19.60
2009,08,03,08,41,19.70
2009,08,03,08,42,19.70
2009,08,03,08,43,19.70
2009,08,03,08,44,19.70
2009,08,03,08,45,19.80
2009,08,03,08,46,19.80
2009,08,03,08,47,19.80
2009,08,03,08,48,19.80
2009,08,03,08,49,19.80
2009,08,03,08,50,19.90
2009,08,03,08,51,19.90
2009,08,03,08,52,19.90
2009,08,03,08,53,19.90
2009,08,03,08,54,19.80
2009,08,03,08,55,19.80
2009,08,03,08,56,19.80
2009,08,03,08,57,19.80
2009,08,03,08,58,19.80
2009,08,03,08,59,19.80
2009,08,03,09,00,19.80
2009,08,03,09,01,19.90
2009,08,03,09,02,19.90
2009,08,03,09,03,20.00
2009,08,03,09,04,20.00
2009,08,03,09,05,20.10
2009,08,03,09,06,20.30
2009,08,03,09,07,20.30
2009,08,03,09,08,20.30
2009,08,03,09,09,20.30
2009,08,03,09,10,20.20
2009,08,03,09,11,20.20
2009,08,03,09,12,20.30
2009,08,03,09,13,20.40
2009,08,03,09,14,20.40
2009,08,03,09,15,20.50
2009,08,03,09,16,20.50
2009,08,03,09,17,20.50
2009,08,03,09,18,20.40
2009,08,03,09,19,20.30
2009,08,03,09,20,20.30
2009,08,03,09,21,20.30
2009,08,03,09,22,20.40
2009,08,03,09,23,20.50
2009,08,03,09,24,20.60
2009,08,03,09,25,20.70
2009,08,03,09,26,20.70
2009,08,03,09,27,20.70
2009,08,03,09,28,20.60
2009,08,03,09,29,20.60
2009,08,03,09,30,20.60
2009,08,03,09,31,20.60
2009,08,03,09,32,20.70
2009,08,03,09,33,20.80
2009,08,03,09,34,20.80
2009,08,03,09,35,20.80
2009,08,03,09,36,20.80
2009,08,03,09,37,20.80
2009,08,03,09,38,20.70
2009,08,03,09,39,20.70
2009,08,03,09,40,20.80
2009,08,03,09,41,20.80
2009,08,03,09,42,20.80
2009,08,03,09,43,20.80
2009,08,03,09,44,20.80
2009,08,03,09,45,20.80
2009,08,03,09,46,21.00
2009,08,03,09,47,21.10
2009,08,03,09,48,21.10
2009,08,03,09,49,21.20
2009,08,03,09,50,21.20
2009,08,03,09,51,21.20
2009,08,03,09,52,21.30
2009,08,03,09,53,21.30
2009,08,03,09,54,21.30
2009,08,03,09,55,21.30
2009,08,03,09,56,21.30
2009,08,03,09,57,21.30
2009,08,03,09,58,21.40
2009,08,03,09,59,21.40
2009,08,03,10,00,21.50
2009,08,03,10,01,21.60
2009,08,03,10,02,21.60
2009,08,03,10,03,21.60
2009,08,03,10,04,21.60
2009,08,03,10,05,21.60
2009,08,03,10,06,21.60
2009,08,03,10,07,21.60
2009,08,03,10,08,21.70
2009,08,03,10,09,21.60
2009,08,03,10,10,21.60
2009,08,03,10,11,21.70
2009,08,03,10,12,21.70
2009,08,03,10,13,21.60
2009,08,03,10,14,21.60
2009,08,03,10,15,21.60
2009,08,03,10,16,21.60
2009,08,03,10,17,21.60
2009,08,03,10,18,21.60
2009,08,03,10,19,21.70
2009,08,03,10,20,21.80
2009,08,03,10,21,21.90
2009,08,03,10,22,21.90
2009,08,03,10,23,21.80
2009,08,03,10,24,21.90
2009,08,03,10,25,22.00
2009,08,03,10,26,22.10
2009,08,03,10,27,22.10
2009,08,03,10,28,22.00
2009,08,03,10,29,21.90
2009,08,03,10,30,21.90
2009,08,03,10,31,21.90
2009,08,03,10,32,21.90
2009,08,03,10,33,21.90
2009,08,03,10,34,21.90
2009,08,03,10,35,21.90
2009,08,03,10,36,22.00
2009,08,03,10,37,22.10
2009,08,03,10,38,22.20
2009,08,03,10,39,22.20
2009,08,03,10,40,22.20
2009,08,03,10,41,22.10
2009,08,03,10,42,22.10
2009,08,03,10,43,22.20
2009,08,03,10,44,22.30
2009,08,03,10,45,22.30
2009,08,03,10,46,22.30
2009,08,03,10,47,22.30
2009,08,03,10,48,22.30
2009,08,03,10,49,22.40
2009,08,03,10,50,22.40
2009,08,03,10,51,22.40
2009,08,03,10,52,22.40
2009,08,03,10,53,22.40
2009,08,03,10,54,22.30
2009,08,03,10,55,22.30
2009,08,03,10,56,22.30
2009,08,03,10,57,22.30
2009,08,03,10,58,22.40
2009,08,03,10,59,22.40
2009,08,03,11,00,22.40
2009,08,03,11,01,22.40
2009,08,03,11,02,22.40
2009,08,03,11,03,22.30
2009,08,03,11,04,22.20
2009,08,03,11,05,22.20
2009,08,03,11,06,22.10
2009,08,03,11,07,22.20
2009,08,03,11,08,22.20
2009,08,03,11,09,22.30
2009,08,03,11,10,22.30
2009,08,03,11,11,22.40
2009,08,03,11,12,22.60
2009,08,03,11,13,22.80
2009,08,03,11,14,22.70
2009,08,03,11,15,22.60
2009,08,03,11,16,22.50
2009,08,03,11,17,22.50
2009,08,03,11,18,22.50
2009,08,03,11,19,22.40
2009,08,03,11,20,22.50
2009,08,03,11,21,22.50
2009,08,03,11,22,22.50
2009,08,03,11,23,22.50
2009,08,03,11,24,22.60
2009,08,03,11,25,22.70
2009,08,03,11,26,22.80
2009,08,03,11,27,22.90
2009,08,03,11,28,23.00
2009,08,03,11,29,23.10
2009,08,03,11,30,23.10
2009,08,03,11,31,23.10
2009,08,03,11,32,23.10
2009,08,03,11,33,23.10
2009,08,03,11,34,23.20
2009,08,03,11,35,23.20
2009,08,03,11,36,23.10
2009,08,03,11,37,23.00
2009,08,03,11,38,22.90
2009,08,03,11,39,22.90
2009,08,03,11,40,22.90
2009,08,03,11,41,22.90
2009,08,03,11,42,22.90
2009,08,03,11,43,22.90
2009,08,03,11,44,22.90
2009,08,03,11,45,22.90
2009,08,03,11,46,22.90
2009,08,03,11,47,22.90
2009,08,03,11,48,22.80
2009,08,03,11,49,22.80
2009,08,03,11,50,22.70
2009,08,03,11,51,22.60
2009,08,03,11,52,22.60
2009,08,03,11,53,22.60
2009,08,03,11,54,22.60
2009,08,03,11,55,22.80
2009,08,03,11,56,22.80
2009,08,03,11,57,22.90
2009,08,03,11,58,22.90
2009,08,03,11,59,22.90
2009,08,03,12,00,22.80
2009,08,03,12,01,22.90
2009,08,03,12,02,23.00
2009,08,03,12,03,23.00
2009,08,03,12,04,23.10
2009,08,03,12,05,23.20
2009,08,03,12,06,23.20
2009,08,03,12,07,23.20
2009,08,03,12,08,23.10
2009,08,03,12,09,23.00
2009,08,03,12,10,22.90
2009,08,03,12,11,22.80
2009,08,03,12,12,22.80
2009,08,03,12,13,22.80
2009,08,03,12,14,22.90
2009,08,03,12,15,22.90
2009,08,03,12,16,23.00
2009,08,03,12,17,23.20
2009,08,03,12,18,23.40
2009,08,03,12,19,23.30
2009,08,03,12,20,23.30
2009,08,03,12,21,23.30
2009,08,03,12,22,23.40
2009,08,03,12,23,23.40
2009,08,03,12,24,23.40
2009,08,03,12,25,23.40
2009,08,03,12,26,23.40
2009,08,03,12,27,23.30
2009,08,03,12,28,23.20
2009,08,03,12,29,23.30
2009,08,03,12,30,23.30
2009,08,03,12,31,23.30
2009,08,03,12,32,23.30
2009,08,03,12,33,23.30
2009,08,03,12,34,23.20
2009,08,03,12,35,23.20
2009,08,03,12,36,23.30
2009,08,03,12,37,23.30
2009,08,03,12,38,23.30
2009,08,03,12,39,23.30
2009,08,03,12,40,23.30
2009,08,03,12,41,23.20
2009,08,03,12,42,23.20
2009,08,03,12,43,23.20
2009,08,03,12,44,23.20
2009,08,03,12,45,23.30
2009,08,03,12,46,23.30
2009,08,03,12,47,23.30
2009,08,03,12,48,23.30
2009,08,03,12,49,23.40
2009,08,03,12,50,23.40
2009,08,03,12,51,23.60
2009,08,03,12,52,23.80
2009,08,03,12,53,23.80
2009,08,03,12,54,23.90
2009,08,03,12,55,23.80
2009,08,03,12,56,23.80
2009,08,03,12,57,23.80
2009,08,03,12,58,23.80
2009,08,03,12,59,23.60
2009,08,03,13,00,23.40
2009,08,03,13,01,23.40
2009,08,03,13,02,23.50
2009,08,03,13,03,23.60
2009,08,03,13,04,23.60
2009,08,03,13,05,23.60
2009,08,03,13,06,23.70
2009,08,03,13,07,23.70
2009,08,03,13,08,23.80
2009,08,03,13,09,23.60
2009,08,03,13,10,23.60
2009,08,03,13,11,23.70
2009,08,03,13,12,23.70
2009,08,03,13,13,23.50
2009,08,03,13,14,23.40
2009,08,03,13,15,23.30
2009,08,03,13,16,23.20
2009,08,03,13,17,23.20
2009,08,03,13,18,23.30
2009,08,03,13,19,23.40
2009,08,03,13,20,23.40
2009,08,03,13,21,23.30
2009,08,03,13,22,23.30
2009,08,03,13,23,23.40
2009,08,03,13,24,23.50
2009,08,03,13,25,23.60
2009,08,03,13,26,23.70
2009,08,03,13,27,23.80
2009,08,03,13,28,23.80
2009,08,03,13,29,23.80
2009,08,03,13,30,23.80
2009,08,03,13,31,23.80
2009,08,03,13,32,23.80
2009,08,03,13,33,23.90
2009,08,03,13,34,24.00
2009,08,03,13,35,24.10
2009,08,03,13,36,24.20
2009,08,03,13,37,24.10
2009,08,03,13,38,24.00
2009,08,03,13,39,24.00
2009,08,03,13,40,23.90
2009,08,03,13,41,23.80
2009,08,03,13,42,23.80
2009,08,03,13,43,23.90
2009,08,03,13,44,24.00
2009,08,03,13,45,24.10
2009,08,03,13,46,24.00
2009,08,03,13,47,23.90
2009,08,03,13,48,23.80
2009,08,03,13,49,23.80
2009,08,03,13,50,23.80
2009,08,03,13,51,23.80
2009,08,03,13,52,23.90
2009,08,03,13,53,23.80
2009,08,03,13,54,23.90
2009,08,03,13,55,24.10
2009,08,03,13,56,24.20
2009,08,03,13,57,24.20
2009,08,03,13,58,24.10
2009,08,03,13,59,24.00
2009,08,03,14,00,24.00
2009,08,03,14,01,23.90
2009,08,03,14,02,23.80
2009,08,03,14,03,23.70
2009,08,03,14,04,23.70
2009,08,03,14,05,23.80
2009,08,03,14,06,23.80
2009,08,03,14,07,23.70
2009,08,03,14,08,23.70
2009,08,03,14,09,23.60
2009,08,03,14,10,23.60
2009,08,03,14,11,23.60
2009,08,03,14,12,23.60
2009,08,03,14,13,23.60
2009,08,03,14,14,23.80
2009,08,03,14,15,23.70
2009,08,03,14,16,23.60
2009,08,03,14,17,23.60
2009,08,03,14,18,23.60
2009,08,03,14,19,23.60
2009,08,03,14,20,23.70
2009,08,03,14,21,23.80
2009,08,03,14,22,23.80
2009,08,03,14,23,23.70
2009,08,03,14,24,23.60
2009,08,03,14,25,23.50
2009,08,03,14,26,23.50
2009,08,03,14,27,23.40
2009,08,03,14,28,23.40
2009,08,03,14,29,23.50
2009,08,03,14,30,23.60
2009,08,03,14,31,23.60
2009,08,03,14,32,23.60
2009,08,03,14,33,23.70
2009,08,03,14,34,23.90
2009,08,03,14,35,24.00
2009,08,03,14,36,24.10
2009,08,03,14,37,24.00
2009,08,03,14,38,23.90
2009,08,03,14,39,23.80
2009,08,03,14,40,23.70
2009,08,03,14,41,23.70
2009,08,03,14,42,23.70
2009,08,03,14,43,23.70
2009,08,03,14,44,23.70
2009,08,03,14,45,23.70
2009,08,03,14,46,23.80
2009,08,03,14,47,23.90
2009,08,03,14,48,23.80
2009,08,03,14,49,23.80
2009,08,03,14,50,23.80
2009,08,03,14,51,23.90
2009,08,03,14,52,23.90
2009,08,03,14,53,23.90
2009,08,03,14,54,23.80
2009,08,03,14,55,23.70
2009,08,03,14,56,23.60
2009,08,03,14,57,23.60
2009,08,03,14,58,23.50
2009,08,03,14,59,23.50
2009,08,03,15,00,23.50
2009,08,03,15,01,23.50
2009,08,03,15,02,23.60
2009,08,03,15,03,23.70
2009,08,03,15,04,23.80
2009,08,03,15,05,23.90
2009,08,03,15,06,23.90
2009,08,03,15,07,23.80
2009,08,03,15,08,23.90
2009,08,03,15,09,23.90
2009,08,03,15,10,24.00
2009,08,03,15,11,24.10
2009,08,03,15,12,24.10
2009,08,03,15,13,24.10
2009,08,03,15,14,24.20
2009,08,03,15,15,24.20
2009,08,03,15,16,24.10
2009,08,03,15,17,24.20
2009,08,03,15,18,24.30
2009,08,03,15,19,24.30
2009,08,03,15,20,24.20
2009,08,03,15,21,24.10
2009,08,03,15,22,24.00
2009,08,03,15,23,24.00
2009,08,03,15,24,24.10
2009,08,03,15,25,24.10
2009,08,03,15,26,24.20
2009,08,03,15,27,24.30
2009,08,03,15,28,24.30
2009,08,03,15,29,24.20
2009,08,03,15,30,24.20
2009,08,03,15,31,24.20
2009,08,03,15,32,24.30
2009,08,03,15,33,24.30
2009,08,03,15,34,24.30
2009,08,03,15,35,24.30
2009,08,03,15,36,24.30
2009,08,03,15,37,24.40
2009,08,03,15,38,24.40
2009,08,03,15,39,24.40
2009,08,03,15,40,24.30
2009,08,03,15,41,24.40
2009,08,03,15,42,24.40
2009,08,03,15,43,24.40
2009,08,03,15,44,24.50
2009,08,03,15,45,24.60
2009,08,03,15,46,24.50
2009,08,03,15,47,24.40
2009,08,03,15,48,24.30
2009,08,03,15,49,24.20
2009,08,03,15,50,24.20
2009,08,03,15,51,24.20
2009,08,03,15,52,24.20
2009,08,03,15,53,24.20
2009,08,03,15,54,24.20
2009,08,03,15,55,24.30
2009,08,03,15,56,24.30
2009,08,03,15,57,24.30
2009,08,03,15,58,24.20
2009,08,03,15,59,24.20
2009,08,03,16,00,24.20
2009,08,03,16,01,24.20
2009,08,03,16,02,24.30
2009,08,03,16,03,24.30
2009,08,03,16,04,24.30
2009,08,03,16,05,24.30
2009,08,03,16,06,24.40
2009,08,03,16,07,24.40
2009,08,03,16,08,24.30
2009,08,03,16,09,24.40
2009,08,03,16,10,24.40
2009,08,03,16,11,24.50
2009,08,03,16,12,24.60
2009,08,03,16,13,24.70
2009,08,03,16,14,24.60
2009,08,03,16,15,24.60
2009,08,03,16,16,24.60
2009,08,03,16,17,24.60
2009,08,03,16,18,24.60
2009,08,03,16,19,24.60
2009,08,03,16,20,24.60
2009,08,03,16,21,24.60
2009,08,03,16,22,24.60
2009,08,03,16,23,24.70
2009,08,03,16,24,24.80
2009,08,03,16,25,24.80
2009,08,03,16,26,24.70
2009,08,03,16,27,24.60
2009,08,03,16,28,24.60
2009,08,03,16,29,24.60
2009,08,03,16,30,24.60
2009,08,03,16,31,24.50
2009,08,03,16,32,24.50
2009,08,03,16,33,24.70
2009,08,03,16,34,24.80
2009,08,03,16,35,24.90
2009,08,03,16,36,24.90
2009,08,03,16,37,25.00
2009,08,03,16,38,25.10
2009,08,03,16,39,25.00
2009,08,03,16,40,25.00
2009,08,03,16,41,25.10
2009,08,03,16,42,25.10
2009,08,03,16,43,25.00
2009,08,03,16,44,24.90
2009,08,03,16,45,24.90
2009,08,03,16,46,24.90
2009,08,03,16,47,24.90
2009,08,03,16,48,24.80
2009,08,03,16,49,24.80
2009,08,03,16,50,24.80
2009,08,03,16,51,24.80
2009,08,03,16,52,24.80
2009,08,03,16,53,24.80
2009,08,03,16,54,24.80
2009,08,03,16,55,24.70
2009,08,03,16,56,24.70
2009,08,03,16,57,24.80
2009,08,03,16,58,24.70
2009,08,03,16,59,24.70
2009,08,03,17,00,24.70
2009,08,03,17,01,24.80
2009,08,03,17,02,25.00
2009,08,03,17,03,25.10
2009,08,03,17,04,25.10
2009,08,03,17,05,25.10
2009,08,03,17,06,25.10
2009,08,03,17,07,25.10
2009,08,03,17,08,25.10
2009,08,03,17,09,25.00
2009,08,03,17,10,25.00
2009,08,03,17,11,24.90
2009,08,03,17,12,24.90
2009,08,03,17,13,24.90
2009,08,03,17,14,24.90
2009,08,03,17,15,24.90
2009,08,03,17,16,24.90
2009,08,03,17,17,24.90
2009,08,03,17,18,25.00
2009,08,03,17,19,25.00
2009,08,03,17,20,25.10
2009,08,03,17,21,25.10
2009,08,03,17,22,25.10